CREW DRAGON DEMO-2 (45623 NORAD) Tracking and Keplerian Element Data

This shows tracking and keplerian element data for the satellite.

Feedback or suggestion? Click here.




ElementValue
Catalog45623
NameCREW DRAGON DEMO-2
Epoch Orbit23452
Epoch Day185.3585272
Epoch Year2020
RAAN268.421
Inclination51.6455
Eccentricity0.000259
Argument of Perigee105.3899
Mean Anonmoly11.4419
Mean Motion15.4947945
Decay Rate9.06E-06
L11 45623U 20033A 20185.35852720 .00000906 00000-0 24236-4 0 9992
L22 45623 51.6455 268.4210 0002590 105.3899 11.4419 15.49479450234526

Live tracking and technical data element details for CREW DRAGON DEMO-2 (NORAD 45623). CREW DRAGON DEMO-2 can be tracked NOW for your location showing map with azimuth and elevation plus other details from your city location.

Track the satellite on the map from your city or location and see movement details for azimuth, elevation, latitude, longitude, range, height, and movement on the map or in text.







IsCatalogInMostPopularTable: catalog: 45623, numindb: 534
Update: records affected: 1



GetName: 45623 CREW DRAGON DEMO-2

Hit Count: updated at: Sun, 05 Jul 2020 16:11:52 GMT